Location: Columbia
(38.9520°N, 92.3340°W)
Time: 05:00:01
(UTC-05:00)

Iridium 22 - Visible Passes

Search period start: 29 August 2014 00:00
Search period end: 08 September 2014 00:00
Orbit: 776 x 779 km, 86.4° (Epoch: 27 August)

Date Brightness Start Highest point End Pass type
(mag) Time Alt. Az. Time Alt. Az. Time Alt. Az.
29 Aug 8.2 01:08:45 15° NNW 01:08:45 15° NNW 01:09:43 10° NNW visible
30 Aug 8.1 00:35:21 17° N 00:35:21 17° N 00:36:28 10° N visible
31 Aug 8.0 00:01:56 16° NNE 00:01:56 16° NNE 00:02:54 10° N visible
31 Aug 8.1 23:28:31 12° NNE 23:28:31 12° NNE 23:28:59 10° NNE visible
01 Sep 8.4 01:08:59 12° NNW 01:08:59 12° NNW 01:09:25 10° NNW visible
02 Sep 8.2 00:35:33 15° NNW 00:35:33 15° NNW 00:36:26 10° N visible
03 Sep 8.1 00:02:07 16° N 00:02:07 16° N 00:03:03 10° N visible
03 Sep 8.1 23:28:41 14° NNE 23:28:41 14° NNE 23:29:21 10° NNE visible
04 Sep 8.2 22:55:15 10° NNE 22:55:15 10° NNE 22:55:15 10° NNE visible
05 Sep 8.4 00:35:43 13° NNW 00:35:43 13° NNW 00:36:15 10° NNW visible
06 Sep 8.2 00:02:16 15° N 00:02:16 15° N 00:03:05 10° N visible
06 Sep 8.1 23:28:49 14° N 23:28:49 14° N 23:29:34 10° N visible
07 Sep 8.1 22:55:21 12° NNE 22:55:21 12° NNE 22:55:44 10° NNE visible
